Harlingen, TX

10:46 AM CDT on March 26, 2017 (GMT -0500)
Valley International

Weather History for KHRL - April, 2012

Change the Weather History Date:

Saturday, April 28, 2012

  Actual Average Record
Temperature  
Mean Temperature 83 °F 78 °F  
Max Temperature 91 °F 88 °F 103 °F (1937)
Min Temperature 75 °F 68 °F 46 °F (1920)
Degree Days  
Heating Degree Days 0 0  
Month to date heating degree days 0 7  
Since 1 July heating degree days 395 621  
Cooling Degree Days 18 13  
Month to date cooling degree days 401 293  
Year to date cooling degree days 963 588  
Growing Degree Days 32 (Base 50)    
Moisture  
Dew Point 69 °F    
Average Humidity 63    
Maximum Humidity 82    
Minimum Humidity 44    
Precipitation  
Precipitation 0.00 in 0.05 in 2.37 in (2013)
Month to date precipitation 2.08 1.56  
Year to date precipitation 6.99 5.32  
Sea Level Pressure  
Sea Level Pressure 29.80 in    
Wind  
Wind Speed 21 mph (SSE)    
Max Wind Speed 31 mph    
Max Gust Speed 39 mph    
Visibility 10 miles    
Events      
T = Trace of Precipitation, MM = Missing Value Source: NWS Daily Summary

Daily Weather History Graph

Daily Weather History Graph

Search for Another Location

Airport or City:

Trip Planner

Search our weather history database for the weather conditions in past years. The results will help you decide how hot, cold, wet, or windy it might be!

Date:

Astronomy

Apr. 28, 2012 Rise Set
Actual Time 6:55 AM CDT 8:01 PM CDT
Civil Twilight 6:30 AM CDT 8:25 PM CDT
Nautical Twilight 6:02 AM CDT 8:54 PM CDT
Astronomical Twilight 5:32 AM CDT 9:23 PM CDT
Moon 12:38 PM CDT (4/28) 1:22 AM CDT (4/28)
Length of Visible Light 13h 54m
Length of Day
13h 06m
Waxing Crescent, 43% of the Moon is Illuminated
Apr 28
Waxing Crescent
Apr 29
First Quarter
May 5
Full
May 12
Last Quarter
May 20
New

Hourly Weather History & Observations

Time (CDT) Temp. Heat Index Dew Point Humidity Pressure Visibility Wind Dir Wind Speed Gust Speed Precip Events Conditions
12:38 AM 75.2 °F - 69.8 °F 83% 29.82 in 9.0 mi SSE 15.0 mph 21.9 mph N/A   Scattered Clouds
12:48 AM 75.2 °F - 69.8 °F 83% 29.82 in 9.0 mi SSE 16.1 mph - N/A   Mostly Cloudy
12:52 AM 75.9 °F - 70.0 °F 82% 29.82 in 9.0 mi SSE 16.1 mph - N/A   Mostly Cloudy
1:52 AM 75.2 °F - 69.8 °F 83% 29.80 in 8.0 mi SSE 17.3 mph 26.5 mph N/A   Overcast
2:52 AM 75.9 °F - 70.0 °F 82% 29.79 in 7.0 mi SSE 15.0 mph - N/A   Overcast
3:52 AM 77.0 °F - 70.0 °F 79% 29.77 in 8.0 mi SSE 20.7 mph 27.6 mph N/A   Overcast
4:52 AM 75.9 °F - 69.1 °F 79% 29.77 in 9.0 mi SSE 18.4 mph 29.9 mph N/A   Overcast
5:52 AM 75.9 °F - 70.0 °F 82% 29.77 in 10.0 mi SSE 16.1 mph - N/A   Overcast
6:20 AM 75.2 °F - 69.8 °F 83% 29.77 in 10.0 mi SSE 15.0 mph - N/A   Scattered Clouds
6:37 AM 75.2 °F - 69.8 °F 83% 29.78 in 10.0 mi SSE 13.8 mph - N/A   Mostly Cloudy
6:45 AM 75.2 °F - 69.8 °F 83% 29.78 in 10.0 mi SSE 13.8 mph - N/A   Scattered Clouds
6:52 AM 75.0 °F - 70.0 °F 84% 29.78 in 10.0 mi SSE 15.0 mph - N/A   Mostly Cloudy
7:52 AM 75.9 °F - 70.0 °F 82% 29.80 in 9.0 mi SE 13.8 mph - N/A   Overcast
8:00 AM 77.0 °F - 69.8 °F 78% 29.80 in 9.0 mi SSE 13.8 mph - N/A   Scattered Clouds
8:52 AM 80.1 °F 83.2 °F 70.0 °F 71% 29.81 in 10.0 mi SSE 23.0 mph 29.9 mph N/A   Scattered Clouds
8:59 AM 80.6 °F 83.9 °F 69.8 °F 70% 29.81 in 10.0 mi SSE 21.9 mph 29.9 mph N/A   Mostly Cloudy
9:11 AM 80.6 °F 83.9 °F 69.8 °F 70% 29.81 in 10.0 mi SSE 21.9 mph - N/A   Scattered Clouds
9:52 AM 82.9 °F 84.6 °F 64.9 °F 54% 29.82 in 10.0 mi SSE 28.8 mph 38.0 mph N/A   Partly Cloudy
10:52 AM 86.0 °F 87.3 °F 64.0 °F 48% 29.83 in 10.0 mi South 25.3 mph 35.7 mph N/A   Partly Cloudy
11:52 AM 88.0 °F 89.3 °F 64.0 °F 45% 29.82 in 10.0 mi SSE 28.8 mph 36.8 mph N/A   Partly Cloudy
12:52 PM 89.1 °F 90.3 °F 64.0 °F 43% 29.81 in 10.0 mi SSE 29.9 mph 36.8 mph N/A   Partly Cloudy
1:52 PM 90.0 °F 91.3 °F 64.0 °F 42% 29.78 in 10.0 mi South 28.8 mph 35.7 mph N/A   Clear
2:52 PM 90.0 °F 92.4 °F 66.0 °F 45% 29.78 in 10.0 mi SSE 26.5 mph 35.7 mph N/A   Scattered Clouds
3:52 PM 88.0 °F 90.7 °F 66.9 °F 49% 29.76 in 10.0 mi SSE 26.5 mph 33.4 mph N/A   Scattered Clouds
4:52 PM 89.1 °F 92.9 °F 68.0 °F 50% 29.75 in 10.0 mi SE 23.0 mph 32.2 mph N/A   Mostly Cloudy
5:52 PM 87.1 °F 90.6 °F 68.0 °F 53% 29.75 in 10.0 mi SSE 20.7 mph - N/A   Mostly Cloudy
6:52 PM 82.9 °F 86.5 °F 69.1 °F 63% 29.75 in 10.0 mi SSE 20.7 mph 33.4 mph N/A   Scattered Clouds
7:52 PM 81.0 °F 84.4 °F 70.0 °F 69% 29.77 in 10.0 mi SE 21.9 mph 26.5 mph N/A   Overcast
8:52 PM 80.1 °F 83.6 °F 71.1 °F 74% 29.80 in 10.0 mi SSE 18.4 mph 24.2 mph N/A   Overcast
9:52 PM 80.1 °F 83.6 °F 71.1 °F 74% 29.83 in 10.0 mi SE 18.4 mph - N/A   Overcast
10:43 PM 78.8 °F - 71.6 °F 78% 29.84 in 10.0 mi SSE 15.0 mph - N/A   Overcast
10:52 PM 79.0 °F - 72.0 °F 79% 29.84 in 10.0 mi SSE 16.1 mph - N/A   Overcast
11:52 PM 78.1 °F - 72.0 °F 81% 29.86 in 10.0 mi SSE 13.8 mph - N/A   Overcast